Year,Month,Day,Hour,Minute,Value (Times are PST for temperature in C)
2011,06,05,00,00,12.70
2011,06,05,00,01,12.70
2011,06,05,00,02,12.70
2011,06,05,00,03,12.70
2011,06,05,00,04,12.70
2011,06,05,00,05,12.60
2011,06,05,00,06,12.60
2011,06,05,00,07,12.60
2011,06,05,00,08,12.60
2011,06,05,00,09,12.60
2011,06,05,00,10,12.50
2011,06,05,00,11,12.50
2011,06,05,00,12,12.50
2011,06,05,00,13,12.40
2011,06,05,00,14,12.30
2011,06,05,00,15,12.30
2011,06,05,00,16,12.30
2011,06,05,00,17,12.30
2011,06,05,00,18,12.30
2011,06,05,00,19,12.30
2011,06,05,00,20,12.20
2011,06,05,00,21,12.20
2011,06,05,00,22,12.20
2011,06,05,00,23,12.20
2011,06,05,00,24,12.20
2011,06,05,00,25,12.20
2011,06,05,00,26,12.20
2011,06,05,00,27,12.10
2011,06,05,00,28,12.10
2011,06,05,00,29,12.10
2011,06,05,00,30,12.00
2011,06,05,00,31,12.00
2011,06,05,00,32,12.00
2011,06,05,00,33,12.00
2011,06,05,00,34,12.00
2011,06,05,00,35,12.00
2011,06,05,00,36,12.00
2011,06,05,00,37,12.00
2011,06,05,00,38,12.00
2011,06,05,00,39,12.00
2011,06,05,00,40,11.90
2011,06,05,00,41,11.90
2011,06,05,00,42,11.90
2011,06,05,00,43,11.90
2011,06,05,00,44,11.90
2011,06,05,00,45,11.90
2011,06,05,00,46,11.90
2011,06,05,00,47,11.90
2011,06,05,00,48,11.90
2011,06,05,00,49,11.80
2011,06,05,00,50,11.80
2011,06,05,00,51,11.80
2011,06,05,00,52,11.80
2011,06,05,00,53,11.80
2011,06,05,00,54,11.80
2011,06,05,00,55,11.80
2011,06,05,00,56,11.80
2011,06,05,00,57,11.70
2011,06,05,00,58,11.70
2011,06,05,00,59,11.70
2011,06,05,01,00,11.70
2011,06,05,01,01,11.70
2011,06,05,01,02,11.70
2011,06,05,01,03,11.70
2011,06,05,01,04,11.70
2011,06,05,01,05,11.70
2011,06,05,01,06,11.60
2011,06,05,01,07,11.60
2011,06,05,01,08,11.60
2011,06,05,01,09,11.60
2011,06,05,01,10,11.60
2011,06,05,01,11,11.60
2011,06,05,01,12,11.60
2011,06,05,01,13,11.60
2011,06,05,01,14,11.60
2011,06,05,01,15,11.60
2011,06,05,01,16,11.40
2011,06,05,01,17,11.40
2011,06,05,01,18,11.40
2011,06,05,01,19,11.40
2011,06,05,01,20,11.40
2011,06,05,01,21,11.40
2011,06,05,01,22,11.40
2011,06,05,01,23,11.30
2011,06,05,01,24,11.30
2011,06,05,01,25,11.30
2011,06,05,01,26,11.30
2011,06,05,01,27,11.30
2011,06,05,01,28,11.30
2011,06,05,01,29,11.20
2011,06,05,01,30,11.20
2011,06,05,01,31,11.20
2011,06,05,01,32,11.20
2011,06,05,01,33,11.10
2011,06,05,01,34,11.10
2011,06,05,01,35,11.10
2011,06,05,01,36,11.10
2011,06,05,01,37,11.10
2011,06,05,01,38,11.10
2011,06,05,01,39,11.10
2011,06,05,01,40,11.10
2011,06,05,01,41,11.10
2011,06,05,01,42,11.10
2011,06,05,01,43,11.10
2011,06,05,01,44,11.10
2011,06,05,01,45,11.10
2011,06,05,01,46,11.10
2011,06,05,01,47,11.10
2011,06,05,01,48,11.10
2011,06,05,01,49,11.10
2011,06,05,01,50,11.10
2011,06,05,01,51,11.10
2011,06,05,01,52,11.00
2011,06,05,01,53,10.90
2011,06,05,01,54,10.90
2011,06,05,01,55,10.90
2011,06,05,01,56,10.90
2011,06,05,01,57,10.90
2011,06,05,01,58,10.90
2011,06,05,01,59,10.90
2011,06,05,02,00,10.80
2011,06,05,02,01,10.80
2011,06,05,02,02,10.80
2011,06,05,02,03,10.80
2011,06,05,02,04,10.80
2011,06,05,02,05,10.80
2011,06,05,02,06,10.80
2011,06,05,02,07,10.80
2011,06,05,02,08,10.80
2011,06,05,02,09,10.80
2011,06,05,02,10,10.70
2011,06,05,02,11,10.70
2011,06,05,02,12,10.70
2011,06,05,02,13,10.70
2011,06,05,02,14,10.60
2011,06,05,02,15,10.60
2011,06,05,02,16,10.60
2011,06,05,02,17,10.60
2011,06,05,02,18,10.60
2011,06,05,02,19,10.60
2011,06,05,02,20,10.60
2011,06,05,02,21,10.60
2011,06,05,02,22,10.60
2011,06,05,02,23,10.60
2011,06,05,02,24,10.60
2011,06,05,02,25,10.60
2011,06,05,02,26,10.50
2011,06,05,02,27,10.40
2011,06,05,02,28,10.40
2011,06,05,02,29,10.40
2011,06,05,02,30,10.40
2011,06,05,02,31,10.40
2011,06,05,02,32,10.40
2011,06,05,02,33,10.40
2011,06,05,02,34,10.30
2011,06,05,02,35,10.30
2011,06,05,02,36,10.30
2011,06,05,02,37,10.30
2011,06,05,02,38,10.30
2011,06,05,02,39,10.30
2011,06,05,02,40,10.30
2011,06,05,02,41,10.30
2011,06,05,02,42,10.20
2011,06,05,02,43,10.20
2011,06,05,02,44,10.30
2011,06,05,02,45,10.30
2011,06,05,02,46,10.30
2011,06,05,02,47,10.20
2011,06,05,02,48,10.20
2011,06,05,02,49,10.20
2011,06,05,02,50,10.20
2011,06,05,02,51,10.10
2011,06,05,02,52,10.10
2011,06,05,02,53,10.10
2011,06,05,02,54,10.10
2011,06,05,02,55,10.10
2011,06,05,02,56,10.10
2011,06,05,02,57,10.10
2011,06,05,02,58,10.10
2011,06,05,02,59,10.10
2011,06,05,03,00,10.10
2011,06,05,03,01,10.10
2011,06,05,03,02,10.10
2011,06,05,03,03,10.10
2011,06,05,03,04,10.10
2011,06,05,03,05,10.10
2011,06,05,03,06,10.10
2011,06,05,03,07,10.10
2011,06,05,03,08,10.10
2011,06,05,03,09,10.10
2011,06,05,03,10,10.10
2011,06,05,03,11,10.10
2011,06,05,03,12,10.10
2011,06,05,03,13,10.10
2011,06,05,03,14,10.10
2011,06,05,03,15,10.10
2011,06,05,03,16,10.10
2011,06,05,03,17,10.10
2011,06,05,03,18,10.10
2011,06,05,03,19,9.90
2011,06,05,03,20,9.90
2011,06,05,03,21,9.90
2011,06,05,03,22,9.90
2011,06,05,03,23,9.90
2011,06,05,03,24,9.90
2011,06,05,03,25,9.90
2011,06,05,03,26,9.80
2011,06,05,03,27,9.80
2011,06,05,03,28,9.70
2011,06,05,03,29,9.70
2011,06,05,03,30,9.70
2011,06,05,03,31,9.70
2011,06,05,03,32,9.60
2011,06,05,03,33,9.60
2011,06,05,03,34,9.70
2011,06,05,03,35,9.70
2011,06,05,03,36,9.70
2011,06,05,03,37,9.70
2011,06,05,03,38,9.70
2011,06,05,03,39,9.70
2011,06,05,03,40,9.70
2011,06,05,03,41,9.70
2011,06,05,03,42,9.70
2011,06,05,03,43,9.70
2011,06,05,03,44,9.70
2011,06,05,03,45,9.70
2011,06,05,03,46,9.70
2011,06,05,03,47,9.70
2011,06,05,03,48,9.80
2011,06,05,03,49,9.70
2011,06,05,03,50,9.70
2011,06,05,03,51,9.70
2011,06,05,03,52,9.70
2011,06,05,03,53,9.70
2011,06,05,03,54,9.70
2011,06,05,03,55,9.70
2011,06,05,03,56,9.70
2011,06,05,03,57,9.70
2011,06,05,03,58,9.70
2011,06,05,03,59,9.70
2011,06,05,04,00,9.70
2011,06,05,04,01,9.70
2011,06,05,04,02,9.70
2011,06,05,04,03,9.70
2011,06,05,04,04,9.70
2011,06,05,04,05,9.70
2011,06,05,04,06,9.70
2011,06,05,04,07,9.60
2011,06,05,04,08,9.60
2011,06,05,04,09,9.60
2011,06,05,04,10,9.60
2011,06,05,04,11,9.60
2011,06,05,04,12,9.60
2011,06,05,04,13,9.60
2011,06,05,04,14,9.60
2011,06,05,04,15,9.60
2011,06,05,04,16,9.60
2011,06,05,04,17,9.60
2011,06,05,04,18,9.50
2011,06,05,04,19,9.50
2011,06,05,04,20,9.50
2011,06,05,04,21,9.50
2011,06,05,04,22,9.40
2011,06,05,04,23,9.40
2011,06,05,04,24,9.30
2011,06,05,04,25,9.30
2011,06,05,04,26,9.30
2011,06,05,04,27,9.30
2011,06,05,04,28,9.30
2011,06,05,04,29,9.30
2011,06,05,04,30,9.30
2011,06,05,04,31,9.30
2011,06,05,04,32,9.20
2011,06,05,04,33,9.20
2011,06,05,04,34,9.20
2011,06,05,04,35,9.20
2011,06,05,04,36,9.20
2011,06,05,04,37,9.20
2011,06,05,04,38,9.20
2011,06,05,04,39,9.20
2011,06,05,04,40,9.20
2011,06,05,04,41,9.20
2011,06,05,04,42,9.20
2011,06,05,04,43,9.20
2011,06,05,04,44,9.20
2011,06,05,04,45,9.20
2011,06,05,04,46,9.20
2011,06,05,04,47,9.20
2011,06,05,04,48,9.20
2011,06,05,04,49,9.20
2011,06,05,04,50,9.20
2011,06,05,04,51,9.20
2011,06,05,04,52,9.20
2011,06,05,04,53,9.20
2011,06,05,04,54,9.20
2011,06,05,04,55,9.20
2011,06,05,04,56,9.20
2011,06,05,04,57,9.20
2011,06,05,04,58,9.20
2011,06,05,04,59,9.20
2011,06,05,05,00,9.20
2011,06,05,05,01,9.20
2011,06,05,05,02,9.20
2011,06,05,05,03,9.20
2011,06,05,05,04,9.20
2011,06,05,05,05,9.10
2011,06,05,05,06,9.10
2011,06,05,05,07,9.10
2011,06,05,05,08,9.10
2011,06,05,05,09,9.10
2011,06,05,05,10,9.10
2011,06,05,05,11,9.10
2011,06,05,05,12,9.00
2011,06,05,05,13,9.00
2011,06,05,05,14,9.00
2011,06,05,05,15,9.00
2011,06,05,05,16,9.00
2011,06,05,05,17,9.00
2011,06,05,05,18,9.00
2011,06,05,05,19,9.00
2011,06,05,05,20,9.00
2011,06,05,05,21,9.00
2011,06,05,05,22,9.00
2011,06,05,05,23,8.90
2011,06,05,05,24,8.90
2011,06,05,05,25,8.90
2011,06,05,05,26,8.80
2011,06,05,05,27,8.80
2011,06,05,05,28,8.80
2011,06,05,05,29,8.80
2011,06,05,05,30,8.80
2011,06,05,05,31,8.80
2011,06,05,05,32,8.80
2011,06,05,05,33,8.90
2011,06,05,05,34,8.90
2011,06,05,05,35,8.90
2011,06,05,05,36,8.90
2011,06,05,05,37,8.90
2011,06,05,05,38,8.90
2011,06,05,05,39,8.80
2011,06,05,05,40,8.80
2011,06,05,05,41,8.80
2011,06,05,05,42,8.80
2011,06,05,05,43,8.80
2011,06,05,05,44,8.80
2011,06,05,05,45,8.80
2011,06,05,05,46,8.70
2011,06,05,05,47,8.70
2011,06,05,05,48,8.70
2011,06,05,05,49,8.70
2011,06,05,05,50,8.80
2011,06,05,05,51,8.80
2011,06,05,05,52,8.90
2011,06,05,05,53,8.90
2011,06,05,05,54,8.90
2011,06,05,05,55,9.00
2011,06,05,05,56,9.10
2011,06,05,05,57,9.10
2011,06,05,05,58,9.20
2011,06,05,05,59,9.20
2011,06,05,06,00,9.20
2011,06,05,06,01,9.30
2011,06,05,06,02,9.30
2011,06,05,06,03,9.40
2011,06,05,06,04,9.50
2011,06,05,06,05,9.60
2011,06,05,06,06,9.70
2011,06,05,06,07,9.70
2011,06,05,06,08,9.70
2011,06,05,06,09,9.80
2011,06,05,06,10,9.90
2011,06,05,06,11,10.00
2011,06,05,06,12,10.10
2011,06,05,06,13,10.20
2011,06,05,06,14,10.30
2011,06,05,06,15,10.40
2011,06,05,06,16,10.50
2011,06,05,06,17,10.60
2011,06,05,06,18,10.60
2011,06,05,06,19,10.60
2011,06,05,06,20,10.60
2011,06,05,06,21,10.60
2011,06,05,06,22,10.60
2011,06,05,06,23,10.60
2011,06,05,06,24,10.60
2011,06,05,06,25,10.60
2011,06,05,06,26,10.70
2011,06,05,06,27,10.70
2011,06,05,06,28,10.80
2011,06,05,06,29,10.90
2011,06,05,06,30,10.90
2011,06,05,06,31,11.00
2011,06,05,06,32,11.10
2011,06,05,06,33,11.10
2011,06,05,06,34,11.10
2011,06,05,06,35,11.20
2011,06,05,06,36,11.20
2011,06,05,06,37,11.20
2011,06,05,06,38,11.30
2011,06,05,06,39,11.30
2011,06,05,06,40,11.40
2011,06,05,06,41,11.40
2011,06,05,06,42,11.40
2011,06,05,06,43,11.60
2011,06,05,06,44,11.60
2011,06,05,06,45,11.60
2011,06,05,06,46,11.70
2011,06,05,06,47,11.80
2011,06,05,06,48,11.80
2011,06,05,06,49,11.90
2011,06,05,06,50,12.00
2011,06,05,06,51,12.00
2011,06,05,06,52,12.10
2011,06,05,06,53,12.20
2011,06,05,06,54,12.30
2011,06,05,06,55,12.30
2011,06,05,06,56,12.40
2011,06,05,06,57,12.50
2011,06,05,06,58,12.60
2011,06,05,06,59,12.70
2011,06,05,07,00,12.80
2011,06,05,07,01,13.00
2011,06,05,07,02,13.10
2011,06,05,07,03,13.30
2011,06,05,07,04,13.40
2011,06,05,07,05,13.50
2011,06,05,07,06,13.60
2011,06,05,07,07,13.80
2011,06,05,07,08,13.90
2011,06,05,07,09,14.00
2011,06,05,07,10,14.10
2011,06,05,07,11,14.20
2011,06,05,07,12,14.20
2011,06,05,07,13,14.40
2011,06,05,07,14,14.50
2011,06,05,07,15,14.60
2011,06,05,07,16,14.70
2011,06,05,07,17,14.80
2011,06,05,07,18,14.90
2011,06,05,07,19,15.00
2011,06,05,07,20,15.10
2011,06,05,07,21,15.20
2011,06,05,07,22,15.30
2011,06,05,07,23,15.40
2011,06,05,07,24,15.50
2011,06,05,07,25,15.60
2011,06,05,07,26,15.70
2011,06,05,07,27,15.70
2011,06,05,07,28,15.70
2011,06,05,07,29,15.70
2011,06,05,07,30,15.80
2011,06,05,07,31,15.80
2011,06,05,07,32,15.80
2011,06,05,07,33,15.80
2011,06,05,07,34,15.80
2011,06,05,07,35,15.80
2011,06,05,07,36,15.80
2011,06,05,07,37,15.80
2011,06,05,07,38,15.80
2011,06,05,07,39,15.80
2011,06,05,07,40,15.80
2011,06,05,07,41,15.80
2011,06,05,07,42,15.70
2011,06,05,07,43,15.60
2011,06,05,07,44,15.60
2011,06,05,07,45,15.50
2011,06,05,07,46,15.50
2011,06,05,07,47,15.40
2011,06,05,07,48,15.40
2011,06,05,07,49,15.40
2011,06,05,07,50,15.30
2011,06,05,07,51,15.30
2011,06,05,07,52,15.30
2011,06,05,07,53,15.30
2011,06,05,07,54,15.30
2011,06,05,07,55,15.30
2011,06,05,07,56,15.30
2011,06,05,07,57,15.30
2011,06,05,07,58,15.30
2011,06,05,07,59,15.30
2011,06,05,08,00,15.30
2011,06,05,08,01,15.40
2011,06,05,08,02,15.40
2011,06,05,08,03,15.40
2011,06,05,08,04,15.40
2011,06,05,08,05,15.40
2011,06,05,08,06,15.40
2011,06,05,08,07,15.40
2011,06,05,08,08,15.50
2011,06,05,08,09,15.60
2011,06,05,08,10,15.60
2011,06,05,08,11,15.60
2011,06,05,08,12,15.60
2011,06,05,08,13,15.60
2011,06,05,08,14,15.50
2011,06,05,08,15,15.50
2011,06,05,08,16,15.50
2011,06,05,08,17,15.60
2011,06,05,08,18,15.60
2011,06,05,08,19,15.60
2011,06,05,08,20,15.60
2011,06,05,08,21,15.60
2011,06,05,08,22,15.70
2011,06,05,08,23,15.70
2011,06,05,08,24,15.80
2011,06,05,08,25,15.80
2011,06,05,08,26,15.80
2011,06,05,08,27,15.80
2011,06,05,08,28,15.80
2011,06,05,08,29,15.80
2011,06,05,08,30,15.80
2011,06,05,08,31,15.80
2011,06,05,08,32,15.80
2011,06,05,08,33,15.80
2011,06,05,08,34,15.80
2011,06,05,08,35,15.80
2011,06,05,08,36,15.80
2011,06,05,08,37,15.80
2011,06,05,08,38,15.90
2011,06,05,08,39,15.90
2011,06,05,08,40,15.90
2011,06,05,08,41,15.90
2011,06,05,08,42,15.90
2011,06,05,08,43,15.90
2011,06,05,08,44,15.80
2011,06,05,08,45,15.80
2011,06,05,08,46,15.80
2011,06,05,08,47,15.80
2011,06,05,08,48,15.80
2011,06,05,08,49,15.90
2011,06,05,08,50,16.00
2011,06,05,08,51,16.10
2011,06,05,08,52,16.10
2011,06,05,08,53,16.20
2011,06,05,08,54,16.20
2011,06,05,08,55,16.20
2011,06,05,08,56,16.20
2011,06,05,08,57,16.20
2011,06,05,08,58,16.20
2011,06,05,08,59,16.20
2011,06,05,09,00,16.30
2011,06,05,09,01,16.20
2011,06,05,09,02,16.20
2011,06,05,09,03,16.20
2011,06,05,09,04,16.20
2011,06,05,09,05,16.20
2011,06,05,09,06,16.30
2011,06,05,09,07,16.30
2011,06,05,09,08,16.30
2011,06,05,09,09,16.30
2011,06,05,09,10,16.30
2011,06,05,09,11,16.30
2011,06,05,09,12,16.30
2011,06,05,09,13,16.30
2011,06,05,09,14,16.30
2011,06,05,09,15,16.30
2011,06,05,09,16,16.30
2011,06,05,09,17,16.40
2011,06,05,09,18,16.30
2011,06,05,09,19,16.30
2011,06,05,09,20,16.30
2011,06,05,09,21,16.30
2011,06,05,09,22,16.40
2011,06,05,09,23,16.40
2011,06,05,09,24,16.40
2011,06,05,09,25,16.40
2011,06,05,09,26,16.40
2011,06,05,09,27,16.40
2011,06,05,09,28,16.40
2011,06,05,09,29,16.40
2011,06,05,09,30,16.40
2011,06,05,09,31,16.40
2011,06,05,09,32,16.40
2011,06,05,09,33,16.40
2011,06,05,09,34,16.40
2011,06,05,09,35,16.40
2011,06,05,09,36,16.40
2011,06,05,09,37,16.40
2011,06,05,09,38,16.40
2011,06,05,09,39,16.40
2011,06,05,09,40,16.30
2011,06,05,09,41,16.30
2011,06,05,09,42,16.30
2011,06,05,09,43,16.30
2011,06,05,09,44,16.30
2011,06,05,09,45,16.20
2011,06,05,09,46,16.30
2011,06,05,09,47,16.30
2011,06,05,09,48,16.30
2011,06,05,09,49,16.30
2011,06,05,09,50,16.30
2011,06,05,09,51,16.30
2011,06,05,09,52,16.40
2011,06,05,09,53,16.50
2011,06,05,09,54,16.60
2011,06,05,09,55,16.60
2011,06,05,09,56,16.70
2011,06,05,09,57,16.70
2011,06,05,09,58,16.70
2011,06,05,09,59,16.70
2011,06,05,10,00,16.70
2011,06,05,10,01,16.70
2011,06,05,10,02,16.60
2011,06,05,10,03,16.60
2011,06,05,10,04,16.70
2011,06,05,10,05,16.70
2011,06,05,10,06,16.70
2011,06,05,10,07,16.60
2011,06,05,10,08,16.60
2011,06,05,10,09,16.70
2011,06,05,10,10,16.70
2011,06,05,10,11,16.70
2011,06,05,10,12,16.80
2011,06,05,10,13,16.90
2011,06,05,10,14,17.00
2011,06,05,10,15,17.00
2011,06,05,10,16,17.00
2011,06,05,10,17,17.10
2011,06,05,10,18,17.00
2011,06,05,10,19,17.00
2011,06,05,10,20,17.00
2011,06,05,10,21,16.90
2011,06,05,10,22,16.90
2011,06,05,10,23,16.90
2011,06,05,10,24,17.00
2011,06,05,10,25,17.00
2011,06,05,10,26,17.10
2011,06,05,10,27,17.20
2011,06,05,10,28,17.30
2011,06,05,10,29,17.30
2011,06,05,10,30,17.10
2011,06,05,10,31,16.90
2011,06,05,10,32,16.80
2011,06,05,10,33,16.80
2011,06,05,10,34,16.70
2011,06,05,10,35,16.70
2011,06,05,10,36,16.70
2011,06,05,10,37,16.50
2011,06,05,10,38,16.40
2011,06,05,10,39,16.30
2011,06,05,10,40,16.30
2011,06,05,10,41,16.20
2011,06,05,10,42,16.30
2011,06,05,10,43,16.30
2011,06,05,10,44,16.40
2011,06,05,10,45,16.50
2011,06,05,10,46,16.60
2011,06,05,10,47,16.70
2011,06,05,10,48,16.80
2011,06,05,10,49,16.80
2011,06,05,10,50,16.80
2011,06,05,10,51,16.80
2011,06,05,10,52,16.70
2011,06,05,10,53,16.70
2011,06,05,10,54,16.70
2011,06,05,10,55,16.80
2011,06,05,10,56,16.80
2011,06,05,10,57,16.80
2011,06,05,10,58,16.90
2011,06,05,10,59,16.90
2011,06,05,11,00,16.90
2011,06,05,11,01,17.00
2011,06,05,11,02,17.00
2011,06,05,11,03,17.00
2011,06,05,11,04,17.10
2011,06,05,11,05,17.00
2011,06,05,11,06,17.10
2011,06,05,11,07,17.10
2011,06,05,11,08,17.10
2011,06,05,11,09,17.00
2011,06,05,11,10,17.10
2011,06,05,11,11,17.10
2011,06,05,11,12,17.10
2011,06,05,11,13,17.10
2011,06,05,11,14,17.20
2011,06,05,11,15,17.30
2011,06,05,11,16,17.20
2011,06,05,11,17,17.20
2011,06,05,11,18,17.20
2011,06,05,11,19,17.20
2011,06,05,11,20,17.30
2011,06,05,11,21,17.30
2011,06,05,11,22,17.40
2011,06,05,11,23,17.40
2011,06,05,11,24,17.40
2011,06,05,11,25,17.30
2011,06,05,11,26,17.30
2011,06,05,11,27,17.30
2011,06,05,11,28,17.30
2011,06,05,11,29,17.30
2011,06,05,11,30,17.40
2011,06,05,11,31,17.60
2011,06,05,11,32,17.70
2011,06,05,11,33,17.70
2011,06,05,11,34,17.80
2011,06,05,11,35,17.80
2011,06,05,11,36,17.80
2011,06,05,11,37,17.70
2011,06,05,11,38,17.60
2011,06,05,11,39,17.50
2011,06,05,11,40,17.50
2011,06,05,11,41,17.30
2011,06,05,11,42,17.30
2011,06,05,11,43,17.30
2011,06,05,11,44,17.30
2011,06,05,11,45,17.50
2011,06,05,11,46,17.60
2011,06,05,11,47,17.60
2011,06,05,11,48,17.60
2011,06,05,11,49,17.60
2011,06,05,11,50,17.60
2011,06,05,11,51,17.60
2011,06,05,11,52,17.60
2011,06,05,11,53,17.60
2011,06,05,11,54,17.70
2011,06,05,11,55,17.90
2011,06,05,11,56,17.90
2011,06,05,11,57,17.90
2011,06,05,11,58,17.90
2011,06,05,11,59,17.80
2011,06,05,12,00,17.90
2011,06,05,12,01,17.90
2011,06,05,12,02,17.90
2011,06,05,12,03,18.00
2011,06,05,12,04,18.10
2011,06,05,12,05,18.20
2011,06,05,12,06,18.30
2011,06,05,12,07,18.30
2011,06,05,12,08,18.30
2011,06,05,12,09,18.30
2011,06,05,12,10,18.40
2011,06,05,12,11,18.30
2011,06,05,12,12,18.30
2011,06,05,12,13,18.20
2011,06,05,12,14,18.10
2011,06,05,12,15,18.20
2011,06,05,12,16,18.10
2011,06,05,12,17,18.10
2011,06,05,12,18,18.10
2011,06,05,12,19,18.20
2011,06,05,12,20,18.20
2011,06,05,12,21,18.20
2011,06,05,12,22,18.30
2011,06,05,12,23,18.40
2011,06,05,12,24,18.60
2011,06,05,12,25,18.70
2011,06,05,12,26,18.80
2011,06,05,12,27,18.90
2011,06,05,12,28,18.90
2011,06,05,12,29,18.80
2011,06,05,12,30,18.80
2011,06,05,12,31,18.80
2011,06,05,12,32,18.70
2011,06,05,12,33,18.60
2011,06,05,12,34,18.60
2011,06,05,12,35,18.50
2011,06,05,12,36,18.40
2011,06,05,12,37,18.40
2011,06,05,12,38,18.40
2011,06,05,12,39,18.40
2011,06,05,12,40,18.30
2011,06,05,12,41,18.30
2011,06,05,12,42,18.20
2011,06,05,12,43,18.20
2011,06,05,12,44,18.20
2011,06,05,12,45,18.20
2011,06,05,12,46,18.20
2011,06,05,12,47,18.20
2011,06,05,12,48,18.20
2011,06,05,12,49,18.30
2011,06,05,12,50,18.40
2011,06,05,12,51,18.50
2011,06,05,12,52,18.50
2011,06,05,12,53,18.50
2011,06,05,12,54,18.40
2011,06,05,12,55,18.50
2011,06,05,12,56,18.60
2011,06,05,12,57,18.70
2011,06,05,12,58,18.90
2011,06,05,12,59,18.90
2011,06,05,13,00,19.00
2011,06,05,13,01,18.90
2011,06,05,13,02,18.80
2011,06,05,13,03,18.60
2011,06,05,13,04,18.60
2011,06,05,13,05,18.70
2011,06,05,13,06,18.80
2011,06,05,13,07,18.80
2011,06,05,13,08,18.90
2011,06,05,13,09,18.90
2011,06,05,13,10,18.90
2011,06,05,13,11,18.90
2011,06,05,13,12,18.90
2011,06,05,13,13,19.00
2011,06,05,13,14,19.10
2011,06,05,13,15,19.00
2011,06,05,13,16,18.90
2011,06,05,13,17,18.90
2011,06,05,13,18,18.80
2011,06,05,13,19,18.80
2011,06,05,13,20,18.80
2011,06,05,13,21,18.80
2011,06,05,13,22,18.70
2011,06,05,13,23,18.70
2011,06,05,13,24,18.70
2011,06,05,13,25,18.70
2011,06,05,13,26,18.70
2011,06,05,13,27,18.70
2011,06,05,13,28,18.70
2011,06,05,13,29,18.70
2011,06,05,13,30,18.70
2011,06,05,13,31,18.80
2011,06,05,13,32,18.90
2011,06,05,13,33,19.00
2011,06,05,13,34,19.10
2011,06,05,13,35,19.10
2011,06,05,13,36,19.10
2011,06,05,13,37,19.20
2011,06,05,13,38,19.20
2011,06,05,13,39,19.30
2011,06,05,13,40,19.40
2011,06,05,13,41,19.50
2011,06,05,13,42,19.60
2011,06,05,13,43,19.50
2011,06,05,13,44,19.40
2011,06,05,13,45,19.40
2011,06,05,13,46,19.40
2011,06,05,13,47,19.30
2011,06,05,13,48,19.10
2011,06,05,13,49,19.20
2011,06,05,13,50,19.30
2011,06,05,13,51,19.40
2011,06,05,13,52,19.40
2011,06,05,13,53,19.40
2011,06,05,13,54,19.50
2011,06,05,13,55,19.50
2011,06,05,13,56,19.50
2011,06,05,13,57,19.60
2011,06,05,13,58,19.60
2011,06,05,13,59,19.70
2011,06,05,14,00,19.80
2011,06,05,14,01,19.80
2011,06,05,14,02,19.80
2011,06,05,14,03,19.70
2011,06,05,14,04,19.70
2011,06,05,14,05,19.60
2011,06,05,14,06,19.60
2011,06,05,14,07,19.60
2011,06,05,14,08,19.50
2011,06,05,14,09,19.50
2011,06,05,14,10,19.50
2011,06,05,14,11,19.50
2011,06,05,14,12,19.50
2011,06,05,14,13,19.60
2011,06,05,14,14,19.80
2011,06,05,14,15,19.90
2011,06,05,14,16,19.90
2011,06,05,14,17,19.90
2011,06,05,14,18,19.90
2011,06,05,14,19,19.80
2011,06,05,14,20,19.80
2011,06,05,14,21,19.90
2011,06,05,14,22,19.80
2011,06,05,14,23,19.80
2011,06,05,14,24,19.70
2011,06,05,14,25,19.60
2011,06,05,14,26,19.60
2011,06,05,14,27,19.70
2011,06,05,14,28,19.80
2011,06,05,14,29,19.90
2011,06,05,14,30,20.10
2011,06,05,14,31,20.30
2011,06,05,14,32,20.30
2011,06,05,14,33,20.30
2011,06,05,14,34,20.20
2011,06,05,14,35,20.20
2011,06,05,14,36,20.10
2011,06,05,14,37,20.20
2011,06,05,14,38,20.20
2011,06,05,14,39,20.20
2011,06,05,14,40,20.20
2011,06,05,14,41,20.20
2011,06,05,14,42,20.20
2011,06,05,14,43,20.10
2011,06,05,14,44,20.10
2011,06,05,14,45,20.10
2011,06,05,14,46,20.10
2011,06,05,14,47,20.10
2011,06,05,14,48,20.00
2011,06,05,14,49,19.90
2011,06,05,14,50,19.90
2011,06,05,14,51,19.90
2011,06,05,14,52,19.90
2011,06,05,14,53,19.90
2011,06,05,14,54,19.80
2011,06,05,14,55,19.80
2011,06,05,14,56,19.80
2011,06,05,14,57,19.80
2011,06,05,14,58,19.80
2011,06,05,14,59,19.70
2011,06,05,15,00,19.60
2011,06,05,15,01,19.50
2011,06,05,15,02,19.50
2011,06,05,15,03,19.40
2011,06,05,15,04,19.40
2011,06,05,15,05,19.40
2011,06,05,15,06,19.40
2011,06,05,15,07,19.40
2011,06,05,15,08,19.40
2011,06,05,15,09,19.40
2011,06,05,15,10,19.30
2011,06,05,15,11,19.30
2011,06,05,15,12,19.20
2011,06,05,15,13,19.20
2011,06,05,15,14,19.10
2011,06,05,15,15,19.20
2011,06,05,15,16,19.20
2011,06,05,15,17,19.30
2011,06,05,15,18,19.30
2011,06,05,15,19,19.30
2011,06,05,15,20,19.30
2011,06,05,15,21,19.30
2011,06,05,15,22,19.40
2011,06,05,15,23,19.40
2011,06,05,15,24,19.40
2011,06,05,15,25,19.50
2011,06,05,15,26,19.50
2011,06,05,15,27,19.50
2011,06,05,15,28,19.60
2011,06,05,15,29,19.60
2011,06,05,15,30,19.60
2011,06,05,15,31,19.50
2011,06,05,15,32,19.50
2011,06,05,15,33,19.50
2011,06,05,15,34,19.50
2011,06,05,15,35,19.50
2011,06,05,15,36,19.40
2011,06,05,15,37,19.50
2011,06,05,15,38,19.50
2011,06,05,15,39,19.60
2011,06,05,15,40,19.70
2011,06,05,15,41,19.80
2011,06,05,15,42,19.90
2011,06,05,15,43,20.10
2011,06,05,15,44,20.20
2011,06,05,15,45,20.30
2011,06,05,15,46,20.40
2011,06,05,15,47,20.40
2011,06,05,15,48,20.50
2011,06,05,15,49,20.50
2011,06,05,15,50,20.40
2011,06,05,15,51,20.30
2011,06,05,15,52,20.30
2011,06,05,15,53,20.20
2011,06,05,15,54,20.10
2011,06,05,15,55,20.10
2011,06,05,15,56,20.10
2011,06,05,15,57,20.10
2011,06,05,15,58,20.10
2011,06,05,15,59,20.00
2011,06,05,16,00,19.90
2011,06,05,16,01,19.90
2011,06,05,16,02,19.90
2011,06,05,16,03,19.90
2011,06,05,16,04,19.90
2011,06,05,16,05,19.90
2011,06,05,16,06,20.00
2011,06,05,16,07,20.10
2011,06,05,16,08,20.00
2011,06,05,16,09,19.90
2011,06,05,16,10,19.90
2011,06,05,16,11,19.90
2011,06,05,16,12,19.90
2011,06,05,16,13,19.90
2011,06,05,16,14,19.90
2011,06,05,16,15,19.90
2011,06,05,16,16,19.90
2011,06,05,16,17,19.90
2011,06,05,16,18,19.90
2011,06,05,16,19,19.90
2011,06,05,16,20,20.00
2011,06,05,16,21,20.10
2011,06,05,16,22,20.10
2011,06,05,16,23,20.10
2011,06,05,16,24,20.10
2011,06,05,16,25,20.20
2011,06,05,16,26,20.20
2011,06,05,16,27,20.30
2011,06,05,16,28,20.30
2011,06,05,16,29,20.20
2011,06,05,16,30,20.20
2011,06,05,16,31,20.20
2011,06,05,16,32,20.30
2011,06,05,16,33,20.30
2011,06,05,16,34,20.30
2011,06,05,16,35,20.30
2011,06,05,16,36,20.40
2011,06,05,16,37,20.40
2011,06,05,16,38,20.40
2011,06,05,16,39,20.30
2011,06,05,16,40,20.30
2011,06,05,16,41,20.30
2011,06,05,16,42,20.30
2011,06,05,16,43,20.30
2011,06,05,16,44,20.30
2011,06,05,16,45,20.40
2011,06,05,16,46,20.50
2011,06,05,16,47,20.60
2011,06,05,16,48,20.70
2011,06,05,16,49,20.70
2011,06,05,16,50,20.70
2011,06,05,16,51,20.70
2011,06,05,16,52,20.70
2011,06,05,16,53,20.70
2011,06,05,16,54,20.70
2011,06,05,16,55,20.70
2011,06,05,16,56,20.70
2011,06,05,16,57,20.80
2011,06,05,16,58,20.80
2011,06,05,16,59,20.90
2011,06,05,17,00,20.80
2011,06,05,17,01,20.80
2011,06,05,17,02,20.80
2011,06,05,17,03,20.80
2011,06,05,17,04,20.70
2011,06,05,17,05,20.70
2011,06,05,17,06,20.80
2011,06,05,17,07,20.80
2011,06,05,17,08,20.80
2011,06,05,17,09,20.80
2011,06,05,17,10,20.80
2011,06,05,17,11,20.80
2011,06,05,17,12,20.80
2011,06,05,17,13,20.70
2011,06,05,17,14,20.80
2011,06,05,17,15,20.80
2011,06,05,17,16,20.90
2011,06,05,17,17,20.90
2011,06,05,17,18,21.00
2011,06,05,17,19,21.00
2011,06,05,17,20,21.00
2011,06,05,17,21,21.10
2011,06,05,17,22,21.00
2011,06,05,17,23,21.00
2011,06,05,17,24,21.00
2011,06,05,17,25,21.00
2011,06,05,17,26,21.00